Location: PACMO
(41.3967°N, 90.3760°W)
Time: 03:34:23
(UTC-05:00)

NOAA 19 - Visible Passes

Search period start: 05 May 2016 00:00
Search period end: 15 May 2016 00:00
Orbit: 842 x 862 km, 99.0° (Epoch: 04 May)

Date Brightness Start Highest point End Pass type
(mag) Time Alt. Az. Time Alt. Az. Time Alt. Az.
05 May 7.6 02:34:28 10° ENE 02:37:18 14° E 02:40:06 10° ESE visible
05 May 5.2 04:12:59 10° N 04:18:34 77° WNW 04:22:38 19° SSW visible
06 May 7.8 02:24:39 10° ENE 02:25:46 11° E 02:26:52 10° E visible
06 May 5.2 04:01:37 10° NNE 04:07:12 85° ESE 04:11:11 20° SSW visible
07 May 5.5 03:50:16 10° NNE 03:55:50 69° ESE 03:59:46 20° S visible
08 May 5.8 03:38:59 10° NNE 03:44:27 54° E 03:48:19 19° S visible
09 May 6.2 03:27:44 10° NNE 03:33:02 43° E 03:36:53 18° SSE visible
09 May 6.4 05:08:53 10° N 05:13:29 27° WNW 05:18:04 10° WSW visible
10 May 6.5 03:16:34 10° NNE 03:21:36 34° E 03:25:27 16° SSE visible
10 May 6.1 04:57:17 10° N 05:02:13 33° WNW 05:07:08 10° SW visible
11 May 6.9 03:05:28 10° NE 03:10:09 27° E 03:14:00 14° SSE visible
11 May 5.8 04:45:45 10° N 04:50:57 41° WNW 04:56:03 10° SW visible
12 May 7.2 02:54:28 10° NE 02:58:41 22° E 03:02:34 11° SE visible
12 May 5.5 04:34:16 10° N 04:39:39 52° WNW 04:44:36 12° SW visible
13 May 7.5 02:43:38 10° NE 02:47:12 17° E 02:50:44 10° SE visible
13 May 5.3 04:22:48 10° N 04:28:19 65° WNW 04:33:09 14° SSW visible
14 May 7.6 02:33:05 10° ENE 02:35:41 13° E 02:38:15 10° ESE visible
14 May 5.2 04:11:24 10° NNE 04:16:59 81° WNW 04:21:42 15° SSW visible
